STARLINK-11584, 63106

Orbit data source: Space-Track

STARLINK-11584, 63106 is a payload satellite owned by SpaceX/Seattle (US) in LEO that was launched on Thu, 27 Feb 2025 UTC via an FALCON 9 launch vehicle from the Air Force Eastern Test Range (AFETR). Payload-class satellites include a variety of spacecraft equipped with specific instruments for various scientific and technological missions. These include communications satellites like Starlink; space stations such as the ISS; scientific satellites like the Hubble; Earth observation satellites from companies like Planet Labs, Umbra, and HawkEye 360; GPS; miniature CubeSats for education and research; and military/defense satellites.

Loading next visibility...
Identifier
63106, 2025-039C
Orbit
LEO
Country
Flag of USUS
Related business
Manufacturer
SpaceX/Seattle
Mission
Operational Commercial Communications
Bus & Motor
STARLINK V2MD, Unknown motor
Mass
960 kg wet, ~910 kg dry
Launch date (UTC)
2025-02-27 (8 months ago)
Launch vehicle
FALCON 9
Launch site
Air Force Eastern Test Range (AFETR)
Object type
Payload
Rocket body
Debris
Shape & HBR
Box + 2 Pan, 18.1 m
Radar Cross Section
36.964 m², Large (>1 m²)

Expand to show TLE details & history
Last TLE update: 22 hours ago

TLE from 22 hours ago
0 STARLINK-11584
1 63106U 25039C   25305.39321395  .00221836  00000-0  16817-2 0  9992
2 63106  43.0020 290.5457 0002177 278.7252  81.3369 15.70909001 39430
Epoch: 2025-11-01T09:26Z
TLE epoch observation values (Epoch: 2025-11-01T09:26:13.685Z)
Latitude
-0.00001°
Longitude
108.06472°
Altitude
355.849 km
Speed
7.698 km/s
True Right ascension
19h 22m 10s
True Declination
0° 00' 00"
Sunlit
Object was in daylight at epoch
Visualization orbit readout
Latitude
Unknown
Longitude
Unknown
Altitude
Unknown
Speed
Unknown
Apparent Right ascension
Unknown
Apparent Declination
Unknown
Sunlit
N/A
Visualization observer readout
Local Sidereal Time
02:53:08
Azimuth
Unknown
Elevation
Unknown
Doppler factor
Unknown
Orbital elements
Apogee altitude
359.746 km
Perigee altitude
356.813 km
Semi-major axis
6,736.416 km
Eccentricity
0.00022
Inclination
43.002°
RAAN
290.5457°
Arg. of periapsis
278.7252°
True anomaly
81.36156°
Mean anomaly
81.3369°
Eccentric anomaly
81.34923°
Mean motion
3.92554 °/min
Orbital period
91.71 mins
BSTAR
0.0016817
Loading maneuver chart data...
Computing Atmospheric mass density...
Loading historical data...
Loading historical data...
Loading historical data...
Loading historical data...
Loading historical data...
Loading historical data...
Loading historical data...

Documentation

Showing up to 5 results
|